Regional Weather Roundup
Issued by NWS

Home | Current Version | Previous Version | Graphics & Text | Print | Product List | Glossary On
Versions: 1 2 3 4 5 6 7 8 9 10 11 12 13 14 15 16 17 18 19 20 21 22 23 24 25 26 27 28 29 30 31 32 33 34 35 36 37 38 39 40 41 42 43 44 45 46 47 48 49 50
000
ASUS43 KIND 210309
RWRIN

WEATHER ROUNDUP FOR INDIANA
NATIONAL WEATHER SERVICE INDIANAPOLIS IN
1100 PM EDT MON APR 20 2015

NOTE: "FAIR" INDICATES FEW OR NO CLOUDS BELOW 12,000 FEET WITH NO
SIGNIFICANT WEATHER AND/OR OBSTRUCTIONS TO VISIBILITY.

* - STATION DOES NOT REPORT WEATHER SUCH AS PRECIPITATION OR FOG.

+ - STATION NOT QUALITY CONTROLLED BY THE NATIONAL WEATHER SERVICE.
    USE DATA WITH CAUTION...ESPECIALLY DEWPOINT AND RELATIVE
    HUMIDITY OBSERVATIONS.

INZ001>003-010>013-019-020-210400-
NORTHWEST INDIANA

CITY           SKY/WX    TMP DP  RH WIND       PRES   REMARKS
GARY /AIRPORT/ CLOUDY    46  27  46 W16       29.65R
KNOX *+        MOCLDY    43  23  45 W9        29.66R
LA PORTE +     MOCLDY    46  32  58 W10       29.66R
MICHIGAN CITY+ CLOUDY    45  27  49 W9G20     29.65R
MONTICELLO +   CLOUDY    44  37  77 SW9       29.71R
RENSSELAER +   MOCLDY    43  37  81 W12G18    29.69S
VALPARAISO     CLOUDY    44  33  65 SW10      29.66R

$$

LMZ046-743>745-210400-
SOUTHERN LAKE MICHIGAN

STATION/POSITION TIME  TEMP    WIND        PRES    WAVE
                       AIR SEA DIR/SP/G            HT
                 (UTC) (F)     (DEG/KT/KT) (MB)    (FT)
BURNS HARBOR     0300   47     260/ 18/ 23 1004.4S
MICHIGAN CITY    0300   45     230/ 21/ 24   N/A
5NW MICH CITY    0300   45 45  270/ 14/ 21   N/A     5

$$

INZ004-005-014>016-021>024-210400-
NORTH CENTRAL INDIANA

CITY           SKY/WX    TMP DP  RH WIND       PRES   REMARKS
GOSHEN         PTCLDY    43  32  65 SW10      29.64R
LOGANSPORT +   CLOUDY    43  36  75 SW15G22   29.71S
PERU/GRISSOM   CLOUDY    45  37  72 W16       29.69R
ROCHESTER +    MOCLDY    46  36  66 SW13      29.68S
SOUTH BEND     PTCLDY    44  30  57 W15       29.64R
WARSAW +       PTCLDY    43  32  65 W8        29.66R

$$

INZ006>009-017-018-025>027-210400-
NORTHEAST INDIANA

CITY           SKY/WX    TMP DP  RH WIND       PRES   REMARKS
ANGOLA *+      CLOUDY    45  34  65 W16       29.61S
AUBURN +       PTCLDY    45  30  57 W16G26    29.65S
FORT WAYNE     CLOUDY    46  35  65 W17       29.67R
HUNTINGTON +   CLOUDY    45  31  58 W8G17     29.68S

$$

INZ028-029-035-036-043>045-051>053-210400-
WEST CENTRAL INDIANA

CITY           SKY/WX    TMP DP  RH WIND       PRES   REMARKS
CRAWFORDSVL +  CLOUDY    44  31  59 SW10      29.75R
GREENCASTLE +  CLOUDY    45  32  61 W7        29.78R
LAFAYETTE      MOCLDY    45  35  68 W9        29.73R
TERRE HAUTE    CLOUDY    47  37  68 W10       29.79R

$$

INZ030>032-037>040-046>048-054>057-064-065-210400-
CENTRAL INDIANA

CITY           SKY/WX    TMP DP  RH WIND       PRES   REMARKS
CP ATTERBURY + CLOUDY    48  34  57 W7        29.78R
FISHERS *+     MOCLDY    45  37  76 W9G17     29.75R
FRANKFORT +    PTCLDY    43  37  80 SW12      29.74S
GREENWOOD *+   CLOUDY    46  32  57 W9        29.77R
INDIANAPOLIS   MOCLDY    45  35  68 W14       29.75R
-EAGLE CREEK   MOCLDY    47  34  60 W8        29.75R
KOKOMO *+      PTCLDY    45  34  65 W16       29.72R
MARION +       CLOUDY    44  36  74 W10       29.72R
MT COMFORT *+  MOCLDY    46  28  49 W14G21    29.76R
SHELBYVILLE    CLOUDY    50  36  58 W10       29.76R
ZIONSVILLE +   MOCLDY    46  34  64 W10       29.75R

$$

INZ033-034-041-042-049-050-058-059-210400-
EAST CENTRAL INDIANA

CITY           SKY/WX    TMP DP  RH WIND       PRES   REMARKS
MUNCIE         MOCLDY    46  36  68 W12G20    29.72R

$$

INZ060-061-067>069-081>083-085>088-210400-
SOUTHWEST INDIANA

CITY           SKY/WX    TMP DP  RH WIND       PRES   REMARKS
EVANSVILLE     PTCLDY    51  34  52 CALM      29.86R
HUNTINGBURG *+ MOCLDY    46  36  66 W7        29.84S
WASHINGTON +   MOCLDY    48  34  58 W8        29.83R

$$

INZ062-063-066-070>080-084-089>092-210400-
SOUTH CENTRAL AND SOUTHEAST INDIANA

CITY           SKY/WX    TMP DP  RH WIND       PRES   REMARKS
BEDFORD +      CLOUDY    50  34  53 W9G16     29.81R
BLOOMINGTON    CLOUDY    48  34  58 W8        29.79R
MADISON *+     CLOUDY    50  34  53 W5        29.82R
NORTH VERNON + CLOUDY    50  36  57 W9        29.79R

$$




USA.gov is the U.S. government's official web portal to all federal, state and local government web resources and services.